Regional Weather Roundup
Issued by NWS

Home | Current Version | Previous Version | Text Only | Print | Product List | Glossary On
Versions: 1 2 3 4 5 6 7 8 9 10 11 12 13 14 15 16 17 18 19 20 21 22 23 24 25 26 27 28 29 30 31 32 33 34 35 36 37 38 39 40 41 42 43 44 45 46 47 48 49 50
000
ASCA42 TJSJ 102311
RWRPR
PUERTO RICO/U.S. VIRGIN ISLANDS HOURLY WEATHER ROUNDUP
NATIONAL WEATHER SERVICE SAN JUAN PR
700 PM AST THU JUL 10 2014

PRZ001-004-110000-
PUERTO RICO

CITY           SKY/WX    TMP DP  RH WIND       PRES   REMARKS
SAN JUAN LMM   PTCLDY    84  77  79 E13       30.05S HX  94
AGUADILLA      CLEAR     81  73  78 E17       30.05R
CEIBA          CLOUDY    82  72  69 E10G20    30.08R
$$

PRZ006-007-110000-
U.S. VIRGIN ISLANDS

CITY           SKY/WX    TMP DP  RH WIND       PRES   REMARKS
CHARLOTTE AMA  CLOUDY    84  75  74 E18G24    30.05R HX  92
CHRISTIANSTED  PTCLDY    84  73  70 E15       30.05R HX  91
$$

HOURLY WEATHER ROUNDUP FOR THE NEWS MEDIA

CITY           SKY/WX    TMP DP  RH WIND       PRES   REMARKS
MIAMI          CLOUDY    81  72  74 NE5       30.08F
ORLANDO        LGT RAIN  76  74  93 S5        30.10R
NEW YORK       PTSUNNY   75  62  64 SE8       30.10S
NEWARK         PTSUNNY   78  60  53 SE10      30.09R
CHICAGO        MOSUNNY   75  52  44 E10       30.14S
HARTFORD       PTSUNNY   76  64  66 S8        30.09R
BOSTON         MOSUNNY   81  53  37 W10       30.08R
DALLAS         MOSUNNY   96  60  30 S15       29.94S HX  96
PHILADELPHIA   PTSUNNY   83  65  54 SE13      30.06S



USA.gov is the U.S. government's official web portal to all federal, state and local government web resources and services.